Location: Unspecified
(52.0178°N, 0.0000°E)
Time: 05:22:54
(UTC+00:00)

O/OREOS (USA 219) - Visible Passes

Search period start: 21 July 2019 00:00
Search period end: 31 July 2019 00:00
Orbit: 621 x 646 km, 72.0° (Epoch: 22 May)

Date Brightness Start Highest point End Pass type
(mag) Time Alt. Az. Time Alt. Az. Time Alt. Az.
23 Jul ? 02:34:37 10° SE 02:36:38 13° E 02:38:38 10° ENE visible
24 Jul ? 02:54:36 10° SSE 02:58:17 25° ESE 03:02:00 10° NE visible
25 Jul ? 03:15:44 10° S 03:20:07 47° ESE 03:24:30 10° NE visible
26 Jul ? 02:01:01 10° SE 02:03:23 14° E 02:05:45 10° ENE visible
27 Jul ? 02:21:14 10° SSE 02:25:04 27° ESE 02:28:53 10° NE visible
28 Jul ? 02:42:46 12° S 02:46:55 52° ESE 02:51:20 10° NE visible
29 Jul ? 01:27:28 10° SE 01:30:07 15° E 01:32:47 10° ENE visible
29 Jul ? 03:04:39 12° SSW 03:08:56 82° WNW 03:13:30 10° NNE visible
30 Jul ? 01:49:02 16° SSE 01:51:50 29° ESE 01:55:46 10° NE visible
30 Jul ? 03:26:44 10° SW 03:31:06 44° NW 03:35:28 10° NNE visible
